TimeEST,TemperatureF,Dew PointF,Humidity,Sea Level PressureIn,VisibilityMPH,Wind Direction,Wind SpeedMPH,Gust SpeedMPH,PrecipitationIn,Events,Conditions,WindDirDegrees,DateUTC
12:22 AM,32.0,30.2,93,29.91,5.0,NNW,3.5,-,N/A,,Overcast,340,2013-02-06 05:22:00
12:34 AM,32.0,30.2,93,29.91,5.0,NW,3.5,-,N/A,,Overcast,310,2013-02-06 05:34:00
12:55 AM,32.0,30.0,92,29.91,6.0,WNW,3.5,-,N/A,,Overcast,290,2013-02-06 05:55:00
1:01 AM,32.0,30.2,93,29.91,6.0,West,4.6,-,N/A,Snow,Light Snow,280,2013-02-06 06:01:00
1:41 AM,32.0,30.2,93,29.92,5.0,WNW,4.6,-,N/A,,Overcast,300,2013-02-06 06:41:00
1:55 AM,32.0,30.2,93,29.93,5.0,WNW,5.8,-,0.00,,Overcast,290,2013-02-06 06:55:00
2:09 AM,32.0,30.2,93,29.93,5.0,NW,5.8,-,N/A,,Overcast,310,2013-02-06 07:09:00
2:39 AM,32.0,30.2,93,29.93,5.0,Calm,Calm,-,N/A,,Overcast,0,2013-02-06 07:39:00
2:55 AM,31.5,29.7,93,29.93,5.0,Calm,Calm,-,N/A,,Overcast,0,2013-02-06 07:55:00
3:07 AM,32.0,30.2,93,29.93,5.0,WNW,3.5,-,N/A,,Overcast,300,2013-02-06 08:07:00
3:11 AM,32.0,30.2,93,29.93,5.0,WNW,3.5,-,N/A,,Overcast,300,2013-02-06 08:11:00
3:55 AM,30.2,28.4,93,29.94,4.0,Calm,Calm,-,N/A,,Mostly Cloudy,0,2013-02-06 08:55:00
3:59 AM,30.2,28.4,93,29.94,4.0,Calm,Calm,-,N/A,,Scattered Clouds,0,2013-02-06 08:59:00
4:19 AM,30.2,28.4,93,29.96,4.0,WSW,3.5,-,N/A,,Clear,240,2013-02-06 09:19:00
4:32 AM,28.4,28.4,100,29.95,2.5,Calm,Calm,-,N/A,,Clear,0,2013-02-06 09:32:00
4:36 AM,28.4,26.6,93,29.95,1.8,Calm,Calm,-,N/A,,Clear,0,2013-02-06 09:36:00
4:38 AM,28.4,26.6,93,29.95,1.5,Calm,Calm,-,N/A,,Clear,0,2013-02-06 09:38:00
4:48 AM,26.6,26.6,100,29.96,1.2,Calm,Calm,-,N/A,,Clear,0,2013-02-06 09:48:00
4:50 AM,26.6,26.6,100,29.96,1.0,Calm,Calm,-,N/A,,Clear,0,2013-02-06 09:50:00
4:51 AM,26.6,26.6,100,29.96,0.8,Calm,Calm,-,N/A,,Clear,0,2013-02-06 09:51:00
4:54 AM,26.6,24.8,93,29.96,0.5,Calm,Calm,-,N/A,Fog,Light Freezing Fog,0,2013-02-06 09:54:00
4:55 AM,26.6,25.3,95,29.97,0.5,Calm,Calm,-,N/A,Fog,Light Freezing Fog,0,2013-02-06 09:55:00
5:09 AM,26.6,24.8,93,29.98,0.5,WSW,4.6,-,N/A,Fog,Light Freezing Fog,250,2013-02-06 10:09:00
5:13 AM,26.6,24.8,93,29.98,0.8,WSW,4.6,-,N/A,,Clear,240,2013-02-06 10:13:00
5:14 AM,26.6,24.8,93,29.98,1.0,WSW,3.5,-,N/A,,Clear,240,2013-02-06 10:14:00
5:15 AM,26.6,24.8,93,29.98,1.2,SW,3.5,-,N/A,,Clear,230,2013-02-06 10:15:00
5:16 AM,26.6,24.8,93,29.98,1.5,SW,4.6,-,N/A,,Clear,230,2013-02-06 10:16:00
5:17 AM,26.6,24.8,93,29.98,1.8,SW,4.6,-,N/A,,Clear,230,2013-02-06 10:17:00
5:18 AM,26.6,24.8,93,29.98,2.0,SW,4.6,-,N/A,,Clear,230,2013-02-06 10:18:00
5:35 AM,26.6,24.8,93,29.99,1.8,SW,3.5,-,N/A,,Clear,230,2013-02-06 10:35:00
5:51 AM,26.6,24.8,93,29.99,2.0,SW,5.8,-,N/A,,Clear,230,2013-02-06 10:51:00
5:55 AM,26.6,25.3,95,30.00,1.8,SW,5.8,-,N/A,,Clear,230,2013-02-06 10:55:00
6:06 AM,26.6,26.6,100,30.01,2.0,WSW,5.8,-,N/A,,Clear,250,2013-02-06 11:06:00
6:14 AM,28.4,26.6,93,30.02,3.0,WSW,5.8,-,N/A,,Clear,250,2013-02-06 11:14:00
6:55 AM,28.2,27.1,96,30.04,4.0,West,6.9,-,N/A,,Mostly Cloudy,260,2013-02-06 11:55:00
7:55 AM,29.7,27.1,90,30.07,6.0,West,6.9,-,N/A,,Clear,270,2013-02-06 12:55:00
8:55 AM,32.9,25.3,74,30.10,10.0,WNW,9.2,-,N/A,,Scattered Clouds,290,2013-02-06 13:55:00
9:55 AM,36.5,25.3,64,30.12,10.0,WNW,12.7,20.7,N/A,,Clear,290,2013-02-06 14:55:00
10:55 AM,37.6,23.9,58,30.14,10.0,WNW,15.0,21.9,N/A,,Overcast,290,2013-02-06 15:55:00
11:55 AM,37.9,21.9,53,30.13,10.0,WNW,12.7,20.7,N/A,,Scattered Clouds,290,2013-02-06 16:55:00
12:55 PM,37.2,22.1,54,30.13,10.0,WNW,10.4,-,N/A,,Overcast,290,2013-02-06 17:55:00
1:55 PM,38.5,20.5,48,30.13,10.0,West,16.1,-,N/A,,Overcast,280,2013-02-06 18:55:00
2:55 PM,37.9,20.3,49,30.15,10.0,WNW,13.8,20.7,N/A,,Overcast,290,2013-02-06 19:55:00
3:55 PM,40.5,20.3,45,30.16,10.0,WNW,15.0,-,N/A,,Overcast,300,2013-02-06 20:55:00
4:55 PM,37.0,19.6,49,30.20,10.0,WNW,10.4,-,N/A,,Scattered Clouds,300,2013-02-06 21:55:00
5:55 PM,34.7,18.9,52,30.23,10.0,WNW,9.2,-,N/A,,Clear,290,2013-02-06 22:55:00
6:55 PM,32.9,18.9,56,30.26,10.0,WNW,8.1,-,N/A,,Clear,290,2013-02-06 23:55:00
7:55 PM,31.6,19.2,60,30.28,10.0,West,3.5,-,N/A,,Clear,260,2013-02-07 00:55:00
8:55 PM,28.9,19.4,68,30.29,10.0,NW,4.6,-,N/A,,Clear,310,2013-02-07 01:55:00
9:55 PM,27.3,17.4,66,30.32,10.0,NNW,5.8,-,N/A,,Clear,330,2013-02-07 02:55:00
10:55 PM,25.9,15.6,65,30.34,10.0,North,4.6,-,N/A,,Clear,350,2013-02-07 03:55:00
11:55 PM,25.0,16.3,70,30.35,10.0,Calm,Calm,-,N/A,,Clear,0,2013-02-07 04:55:00